Location: Unspecified
(0.0000°N, 0.0000°E)
Time: 05:21:14
(UTC+02:00)

Orbus 21S - Visible Passes

Search period start: 25 May 2015 00:00
Search period end: 04 June 2015 00:00
Orbit: 274 x 33366 km, 24.5° (Epoch: 22 May)

Date Brightness Start Highest point End Pass type
(mag) Time Alt. Az. Time Alt. Az. Time Alt. Az.
25 May 6.3 05:04:40 15° SSE 05:05:04 15° SSE 13:36:09 10° ENE visible
25 May 6.3 05:04:40 15° SSE 05:05:04 15° SSE 05:15:36 10° SE visible
26 May 6.4 00:11:51 10° WNW 00:13:59 15° WNW 00:13:59 15° WNW visible
27 May 6.1 05:54:51 18° S 06:00:28 25° SSE 14:42:26 10° ENE visible
28 May 6.3 11:29:29 10° WSW 20:21:25 43° N 20:34:00 10° ENE visible
29 May 6.2 06:44:48 12° SSW 06:56:46 36° SSE 15:42:18 10° ENE visible
30 May 5.6 12:26:14 10° WSW 21:18:45 42° N 21:25:40 15° ENE visible
01 Jun 4.7 21:39:38 10° WNW 22:13:27 46° N 22:15:06 40° NE visible
03 Jun 4.9 22:51:35 10° WNW 23:04:19 42° NW 23:04:19 42° NW visible
